Flag for Italy Weather past 2 weeks in Bologna, Italy

Now
72 °F

Passing clouds.


Feels Like: 76 °F
Forecast: 49 / 64 °F
Wind: 3 mph from North

Location: Bologna / Borgo Panigale

Current Time: Oct 24, 2014 at 4:48:05 PM

Latest Report: Oct 24, 2014 at 3:50 PM


Visibility: N/A

Pressure: 29.95 "Hg

Humidity: 27%

Dew point: 36 °F

Location of BolognaLocation

Historic Weather in Bologna — Graph

°F

Bologna temperature yesterday

Maximum temperature yesterday: 66 °F (at 2:20 PM)
Minimum temperature yesterday: 50 °F (at 8:20 AM)
Average temperature yesterday: 58 °F

Past Weeks' High & Low Weather Summary

 TemperatureHumidityPressure
High81 °F (Oct 13, 12:50 PM)100% (Oct 10, 12:50 AM)30.30 "Hg (Oct 10, 12:50 AM)
Low50 °F (Oct 23, 8:20 AM)24% (Oct 22, 3:20 PM)29.53 "Hg (Oct 22, 1:50 AM)
Average66 °F80%29.97 "Hg
* Reported Oct 9 3:20 PM — Oct 24 3:20 PM, Bologna, Weather by CustomWeather, © 2014

Note: Actual official high and low records may vary slightly from our data, if they occured in-between our weather recording intervals... More about our weather records

Advertising

Bologna weather history for previous 24 hours

 ConditionsComfort  
Time TempWeatherWind HumidityBarometerVisibility
3:20 PM
Oct 24
72 °FPassing clouds.3 mph33%29.95 "HgN/A
2:50 PM72 °FSunny.3 mph31%29.95 "Hg10 mi
2:20 PM70 °FPassing clouds.5 mph35%29.95 "HgN/A
1:50 PM70 °FPassing clouds.6 mph35%29.95 "HgN/A
1:20 PM68 °FPassing clouds.7 mph35%29.98 "HgN/A
12:50 PM68 °FPassing clouds.8 mph35%29.98 "HgN/A
12:20 PM68 °FPassing clouds.8 mph38%29.98 "HgN/A
11:50 AM66 °FPassing clouds.7 mph37%29.98 "HgN/A
11:20 AM66 °FPassing clouds.7 mph35%29.98 "HgN/A
10:50 AM64 °FPassing clouds.8 mph40%29.98 "HgN/A
10:20 AM64 °FSunny.10 mph40%29.95 "Hg10 mi
9:50 AM63 °FSunny.7 mph45%29.95 "Hg10 mi
9:20 AM61 °FPassing clouds.5 mph52%29.95 "HgN/A
8:50 AM57 °FSunny.3 mph59%29.92 "Hg10 mi
8:20 AM55 °FClear.6 mph63%29.92 "Hg10 mi
7:50 AM55 °FClear.5 mph51%29.92 "Hg10 mi
7:20 AM54 °FPassing clouds.3 mph58%29.92 "HgN/A
6:50 AM57 °FClear.6 mph48%29.92 "Hg10 mi
6:20 AM57 °FClear.8 mph48%29.89 "Hg10 mi
5:50 AM57 °FClear.8 mph51%29.89 "Hg10 mi
5:20 AM61 °FClear.9 mph45%29.89 "Hg10 mi
4:50 AM59 °FClear.7 mph48%29.89 "Hg10 mi
4:20 AM59 °FClear.8 mph48%29.89 "Hg10 mi
3:20 AM59 °FClear.8 mph51%29.89 "Hg10 mi
2:50 AM57 °FClear.7 mph59%29.89 "Hg10 mi
2:20 AM55 °FClear.6 mph67%29.89 "Hg10 mi
1:50 AM55 °FClear.1 mph72%29.86 "Hg10 mi
1:20 AM55 °FClear.2 mph72%29.86 "Hg10 mi
12:50 AM55 °FClear.1 mph72%29.86 "Hg10 mi
12:20 AM55 °FClear.No wind72%29.86 "Hg10 mi
11:50 PM
Oct 23
55 °FClear.2 mph72%29.86 "Hg10 mi
11:20 PM55 °FPassing clouds.5 mph67%29.86 "HgN/A
10:50 PM55 °FPassing clouds.3 mph67%29.86 "HgN/A
10:20 PM55 °FClear.2 mph67%29.86 "Hg10 mi
9:50 PM55 °FPassing clouds.3 mph67%29.83 "HgN/A
9:20 PM55 °FClear.5 mph67%29.83 "Hg10 mi
8:50 PM55 °FClear.7 mph63%29.80 "Hg10 mi
8:20 PM57 °FPassing clouds.5 mph59%29.83 "HgN/A
7:50 PM57 °FPassing clouds.8 mph55%29.80 "HgN/A
7:20 PM59 °FClear.8 mph51%29.80 "Hg10 mi
6:50 PM59 °FSunny.7 mph55%29.80 "Hg10 mi
6:20 PM61 °FPassing clouds.8 mph52%29.80 "HgN/A
5:50 PM61 °FSunny.3 mph59%29.80 "Hg10 mi
5:20 PM64 °FSunny.No wind46%29.80 "Hg10 mi
4:50 PM66 °FPassing clouds.5 mph37%29.77 "HgN/A
4:20 PM66 °FPassing clouds.8 mph37%29.77 "HgN/A
Weather by CustomWeather, © 2014

See weather overviewHow to use our weather pages